Weather in Blagoevo

Russia / Komi Republic     63°25′34″N   47°56′56″E
temp.,
°C
wind,
m/s
gust,
m/s
humid.,
%
clouds,
%
prec.,
mm/h
press.,
hPa
HPBL,
m
25 february, thu
thu2500:00−19sse4119397 0.0 1026342
03:00−20sse4109396 0.0 1023331
06:00−21sse4109371 0.0 1021331
09:00−20sse4109151 0.0 1020359
12:00−16sse5108534 0.0 1018494
15:00−15sse4108759 0.0 1017596
18:00−16sse41092100 0.0 1016623
21:00−17sse41093100 0.1 1016585
26 february, fri
fri2600:00−17sse41092100 0.0 1015556
03:00−18sse41093100 0.1 1015475
06:00−19sse41194100 0.0 1013443
09:00−18sse51191100 0.1 1011526
12:00−16sse51088100 0.1 1010624
15:00−15sse51088100 0.1 1009632
18:00−17se41192100 0.0 1007542
21:00−19se41193100 0.1 1008476
27 february, sat
sat2700:00−20se389699 0.0 1008306
03:00−21ese389697 0.0 1010261
06:00−22ese269699 0.0 1010235
09:00−21se259393 0.0 1011251
12:00−17se238562 0.0 1011375
15:00−15ese238878 0.0 1012402
18:00−19ese129758 0.0 101320
21:00−21se129729 0.0 101420
28 february, sun
sun2800:00−22s11986 0.0 101420
03:00−22s019736 0.0 101520
06:00−21s129758 0.0 101522
09:00−18ssw139467 0.0 1016136
12:00−14ssw238874 0.0 1016329
15:00−12sw249086 0.1 1016395
18:00−16ssw239797 0.0 101642
21:00−16ssw359897 0.1 1016126
1 march, mon
mon100:00−14ssw3896100 0.0 1014239
03:00−12ssw4995100 0.1 1011332
06:00−10sw51193100 0.2 1008414
09:00−8ssw51194100 1.3 1003466
12:00−5sw51394100 2.4 999679
15:000wsw61398100 3.7 9941050
18:00+1w51192100 0.4 992905
21:00−2w3119391 0.5 992421